Location: Sungai Kamana Besar
(2.6333°N, 113.4333°E)
Time: 03:58:46
(UTC+00:00)

Cosmos 1302 Rocket - Pass Details

Date: 29 May 2022
Orbit: 757 x 775 km, 74.0° (Epoch: 24 June)

Event Time Altitude Azimuth Distance (km) Brightness Sun altitude
Exits shadow 20:28:55 70° 198° (SSW) 821 3.9 -25.4°
Maximum altitude 20:29:33 88° 279° (W) 777 3.9 -25.2°
Drops below altitude 10° 20:34:49 10° 12° (NNE) 2,306 6.9 -24.1°
Sets 20:37:10 0° 12° (NNE) 3,228 7.8 -23.5°
